Time,TemperatureF,DewpointF,PressureIn,WindDirection,WindDirectionDegrees,WindSpeedMPH,WindSpeedGustMPH,Humidity,HourlyPrecipIn,Conditions,Clouds,dailyrainin,SoftwareType,DateUTC
2013-02-06 00:04:00,23.7,23.0,29.88,NNE,22,4.2,-999.0,97,-99.99,,,0.00,Acu-Link.com,2013-02-06 06:04:00,
2013-02-06 00:19:00,24.1,22.9,29.88,East,90,4.7,-999.0,95,-99.99,,,0.00,Acu-Link.com,2013-02-06 06:19:00,
2013-02-06 00:34:00,23.5,22.3,29.88,ESE,112,2.2,-999.0,95,-99.99,,,0.00,Acu-Link.com,2013-02-06 06:34:00,
2013-02-06 00:50:00,23.0,22.0,29.89,SSE,157,2.2,-999.0,96,-99.99,,,0.00,Acu-Link.com,2013-02-06 06:50:00,
2013-02-06 01:05:00,23.0,21.8,29.89,SSE,157,3.2,-999.0,95,-99.99,,,0.00,Acu-Link.com,2013-02-06 07:05:00,
2013-02-06 01:20:00,23.5,22.5,29.89,SE,135,2.7,-999.0,96,-99.99,,,0.00,Acu-Link.com,2013-02-06 07:20:00,
2013-02-06 01:36:00,24.1,22.6,29.89,SSE,157,3.7,-999.0,94,-99.99,,,0.00,Acu-Link.com,2013-02-06 07:36:00,
2013-02-06 01:51:00,24.1,22.6,29.89,SE,135,3.2,-999.0,94,-99.99,,,0.00,Acu-Link.com,2013-02-06 07:51:00,
2013-02-06 02:06:00,24.1,22.6,29.89,ESE,112,3.7,-999.0,94,-99.99,,,0.00,Acu-Link.com,2013-02-06 08:06:00,
2013-02-06 02:22:00,24.3,22.8,29.89,ESE,112,4.2,-999.0,94,-99.99,,,0.00,Acu-Link.com,2013-02-06 08:22:00,
2013-02-06 02:37:00,24.3,22.8,29.88,ESE,112,4.7,-999.0,94,-99.99,,,0.00,Acu-Link.com,2013-02-06 08:37:00,
2013-02-06 02:52:00,24.3,22.8,29.88,SE,135,5.3,-999.0,94,-99.99,,,0.00,Acu-Link.com,2013-02-06 08:52:00,
2013-02-06 03:08:00,24.8,23.3,29.87,ESE,112,4.7,-999.0,94,-99.99,,,0.00,Acu-Link.com,2013-02-06 09:08:00,
2013-02-06 03:23:00,25.0,23.5,29.86,ESE,112,6.3,-999.0,94,-99.99,,,0.00,Acu-Link.com,2013-02-06 09:23:00,
2013-02-06 03:38:00,25.2,23.7,29.85,South,180,4.7,-999.0,94,-99.99,,,0.00,Acu-Link.com,2013-02-06 09:38:00,
2013-02-06 03:53:00,25.3,23.8,29.85,ESE,112,6.8,-999.0,94,-99.99,,,0.00,Acu-Link.com,2013-02-06 09:53:00,
2013-02-06 04:09:00,26.1,24.6,29.85,SSE,157,9.4,-999.0,94,-99.99,,,0.00,Acu-Link.com,2013-02-06 10:09:00,
2013-02-06 04:24:00,26.1,24.6,29.85,SSE,157,9.9,-999.0,94,-99.99,,,0.00,Acu-Link.com,2013-02-06 10:24:00,
2013-02-06 04:39:00,26.1,24.6,29.85,ESE,112,5.8,-999.0,94,-99.99,,,0.00,Acu-Link.com,2013-02-06 10:39:00,
2013-02-06 04:55:00,26.2,24.7,29.84,ESE,112,6.8,-999.0,94,-99.99,,,0.00,Acu-Link.com,2013-02-06 10:55:00,
2013-02-06 05:10:00,26.4,24.9,29.83,ESE,112,7.3,-999.0,94,-99.99,,,0.00,Acu-Link.com,2013-02-06 11:10:00,
2013-02-06 05:25:00,26.8,25.6,29.82,SE,135,7.8,-999.0,95,-99.99,,,0.00,Acu-Link.com,2013-02-06 11:25:00,
2013-02-06 05:41:00,27.3,25.8,29.82,ESE,112,10.4,-999.0,94,-99.99,,,0.00,Acu-Link.com,2013-02-06 11:41:00,
2013-02-06 05:56:00,27.5,26.0,29.81,ESE,112,5.3,-999.0,94,-99.99,,,0.00,Acu-Link.com,2013-02-06 11:56:00,
2013-02-06 06:11:00,27.5,26.0,29.81,ESE,112,9.4,-999.0,94,-99.99,,,0.00,Acu-Link.com,2013-02-06 12:11:00,
2013-02-06 06:26:00,27.3,25.8,29.80,SE,135,10.4,-999.0,94,-99.99,,,0.00,Acu-Link.com,2013-02-06 12:26:00,
2013-02-06 06:42:00,27.3,25.8,29.78,ESE,112,9.4,-999.0,94,-99.99,,,0.00,Acu-Link.com,2013-02-06 12:42:00,
2013-02-06 06:57:00,27.7,25.9,29.78,ESE,112,7.3,-999.0,93,-99.99,,,0.00,Acu-Link.com,2013-02-06 12:57:00,
2013-02-06 07:12:00,27.5,25.7,29.78,ESE,112,8.9,-999.0,93,-99.99,,,0.00,Acu-Link.com,2013-02-06 13:12:00,
2013-02-06 07:28:00,27.7,25.9,29.78,ESE,112,11.4,-999.0,93,-99.99,,,0.00,Acu-Link.com,2013-02-06 13:28:00,
2013-02-06 07:43:00,27.9,25.9,29.77,SSE,157,12.5,-999.0,92,-99.99,,,0.00,Acu-Link.com,2013-02-06 13:43:00,
2013-02-06 07:58:00,28.2,26.2,29.77,ESE,112,9.4,-999.0,92,-99.99,,,0.00,Acu-Link.com,2013-02-06 13:58:00,
2013-02-06 08:14:00,28.9,26.6,29.76,ESE,112,10.9,-999.0,91,-99.99,,,0.00,Acu-Link.com,2013-02-06 14:14:00,
2013-02-06 08:29:00,30.2,27.1,29.76,ESE,112,8.9,-999.0,88,-99.99,,,0.00,Acu-Link.com,2013-02-06 14:29:00,
2013-02-06 08:44:00,31.3,27.9,29.76,SE,135,12.5,-999.0,87,-99.99,,,0.00,Acu-Link.com,2013-02-06 14:44:00,
2013-02-06 08:59:00,32.4,28.4,29.76,ESE,112,9.9,-999.0,85,-99.99,,,0.00,Acu-Link.com,2013-02-06 14:59:00,
2013-02-06 09:15:00,32.5,28.5,29.75,SSE,157,8.9,-999.0,85,-99.99,,,0.00,Acu-Link.com,2013-02-06 15:15:00,
2013-02-06 09:30:00,32.4,28.4,29.75,SSE,157,11.4,-999.0,85,-99.99,,,0.00,Acu-Link.com,2013-02-06 15:30:00,
2013-02-06 09:45:00,32.7,28.7,29.74,ESE,112,13.5,-999.0,85,-99.99,,,0.00,Acu-Link.com,2013-02-06 15:45:00,
2013-02-06 10:00:00,33.1,29.1,29.74,SSE,157,10.9,-999.0,85,-99.99,,,0.00,Acu-Link.com,2013-02-06 16:00:00,
2013-02-06 10:15:00,33.6,29.3,29.75,SSE,157,6.8,-999.0,84,-99.99,,,0.00,Acu-Link.com,2013-02-06 16:15:00,
2013-02-06 10:30:00,35.8,30.2,29.75,SSE,157,9.9,-999.0,80,-99.99,,,0.00,Acu-Link.com,2013-02-06 16:30:00,
2013-02-06 10:46:00,36.3,30.4,29.74,SE,135,10.4,-999.0,79,-99.99,,,0.00,Acu-Link.com,2013-02-06 16:46:00,
2013-02-06 11:01:00,36.9,30.7,29.73,SSE,157,12.5,-999.0,78,-99.99,,,0.00,Acu-Link.com,2013-02-06 17:01:00,
2013-02-06 11:16:00,38.3,31.1,29.73,South,180,14.0,-999.0,75,-99.99,,,0.00,Acu-Link.com,2013-02-06 17:16:00,
2013-02-06 11:31:00,39.2,31.3,29.74,South,180,11.4,-999.0,73,-99.99,,,0.00,Acu-Link.com,2013-02-06 17:31:00,
2013-02-06 11:47:00,39.2,31.6,29.73,South,180,13.5,-999.0,74,-99.99,,,0.00,Acu-Link.com,2013-02-06 17:47:00,
2013-02-06 12:02:00,40.3,32.0,29.72,South,180,12.5,-999.0,72,-99.99,,,0.00,Acu-Link.com,2013-02-06 18:02:00,
2013-02-06 12:17:00,40.1,32.2,29.71,SSE,157,8.3,-999.0,73,-99.99,,,0.00,Acu-Link.com,2013-02-06 18:17:00,
2013-02-06 12:32:00,39.9,32.3,29.70,South,180,12.5,-999.0,74,-99.99,,,0.00,Acu-Link.com,2013-02-06 18:32:00,
2013-02-06 12:48:00,40.1,32.5,29.70,South,180,10.4,-999.0,74,-99.99,,,0.00,Acu-Link.com,2013-02-06 18:48:00,
2013-02-06 13:03:00,40.5,32.9,29.69,South,180,8.9,-999.0,74,-99.99,,,0.00,Acu-Link.com,2013-02-06 19:03:00,
2013-02-06 13:18:00,40.8,33.2,29.69,SE,135,8.3,-999.0,74,-99.99,,,0.00,Acu-Link.com,2013-02-06 19:18:00,
2013-02-06 13:34:00,41.4,33.7,29.69,SSE,157,7.3,-999.0,74,-99.99,,,0.00,Acu-Link.com,2013-02-06 19:34:00,
2013-02-06 13:49:00,41.7,33.7,29.69,SSW,202,6.8,-999.0,73,-99.99,,,0.00,Acu-Link.com,2013-02-06 19:49:00,
2013-02-06 14:04:00,42.4,34.4,29.69,SSW,202,5.8,-999.0,73,-99.99,,,0.00,Acu-Link.com,2013-02-06 20:04:00,
2013-02-06 14:20:00,42.6,34.2,29.68,South,180,8.3,-999.0,72,-99.99,,,0.00,Acu-Link.com,2013-02-06 20:20:00,
2013-02-06 14:35:00,43.0,34.6,29.69,SSW,202,4.7,-999.0,72,-99.99,,,0.00,Acu-Link.com,2013-02-06 20:35:00,
2013-02-06 14:50:00,43.0,34.3,29.69,SSW,202,7.3,-999.0,71,-99.99,,,0.00,Acu-Link.com,2013-02-06 20:50:00,
2013-02-06 15:06:00,43.2,34.8,29.69,SSW,202,4.7,-999.0,72,-99.99,,,0.00,Acu-Link.com,2013-02-06 21:06:00,
2013-02-06 15:21:00,43.5,35.1,29.69,SSW,202,4.2,-999.0,72,-99.99,,,0.00,Acu-Link.com,2013-02-06 21:21:00,
2013-02-06 15:36:00,43.2,34.8,29.69,South,180,3.7,-999.0,72,-99.99,,,0.00,Acu-Link.com,2013-02-06 21:36:00,
2013-02-06 15:52:00,43.2,35.1,29.69,SSE,157,3.2,-999.0,73,-99.99,,,0.00,Acu-Link.com,2013-02-06 21:52:00,
2013-02-06 16:07:00,42.8,35.1,29.70,SSW,202,3.2,-999.0,74,-99.99,,,0.00,Acu-Link.com,2013-02-06 22:07:00,
2013-02-06 16:22:00,42.6,35.2,29.70,South,180,2.7,-999.0,75,-99.99,,,0.00,Acu-Link.com,2013-02-06 22:22:00,
2013-02-06 16:38:00,42.3,35.3,29.70,South,180,1.7,-999.0,76,-99.99,,,0.00,Acu-Link.com,2013-02-06 22:38:00,
2013-02-06 16:53:00,41.5,34.8,29.70,South,180,1.7,-999.0,77,-99.99,,,0.00,Acu-Link.com,2013-02-06 22:53:00,
2013-02-06 17:08:00,41.2,34.9,29.70,South,180,2.2,-999.0,78,-99.99,,,0.00,Acu-Link.com,2013-02-06 23:08:00,
2013-02-06 17:23:00,40.6,34.6,29.71,SW,225,0.0,-999.0,79,-99.99,,,0.00,Acu-Link.com,2013-02-06 23:23:00,
2013-02-06 17:39:00,40.5,34.5,29.72,SE,135,0.0,-999.0,79,-99.99,,,0.00,Acu-Link.com,2013-02-06 23:39:00,
2013-02-06 17:54:00,39.6,34.3,29.72,NW,315,0.0,-999.0,81,-99.99,,,0.00,Acu-Link.com,2013-02-06 23:54:00,
2013-02-06 18:09:00,39.2,34.2,29.72,South,180,1.7,-999.0,82,-99.99,,,0.00,Acu-Link.com,2013-02-07 00:09:00,
2013-02-06 18:25:00,38.5,34.1,29.73,South,180,2.2,-999.0,84,-99.99,,,0.00,Acu-Link.com,2013-02-07 00:25:00,
2013-02-06 18:40:00,37.9,33.8,29.73,SW,225,2.7,-999.0,85,-99.99,,,0.00,Acu-Link.com,2013-02-07 00:40:00,
2013-02-06 18:55:00,38.1,34.0,29.74,SSW,202,3.7,-999.0,85,-99.99,,,0.00,Acu-Link.com,2013-02-07 00:55:00,
2013-02-06 19:11:00,38.7,34.3,29.74,West,270,3.2,-999.0,84,-99.99,,,0.00,Acu-Link.com,2013-02-07 01:11:00,
2013-02-06 19:26:00,38.8,34.1,29.75,West,270,3.2,-999.0,83,-99.99,,,0.00,Acu-Link.com,2013-02-07 01:26:00,
2013-02-06 19:41:00,38.8,34.1,29.76,West,270,4.2,-999.0,83,-99.99,,,0.00,Acu-Link.com,2013-02-07 01:41:00,
2013-02-06 19:56:00,38.7,34.0,29.76,West,270,2.7,-999.0,83,-99.99,,,0.00,Acu-Link.com,2013-02-07 01:56:00,
2013-02-06 20:12:00,38.3,33.6,29.77,WNW,292,5.3,-999.0,83,-99.99,,,0.00,Acu-Link.com,2013-02-07 02:12:00,
2013-02-06 20:27:00,37.9,33.2,29.77,NNW,337,4.7,-999.0,83,-99.99,,,0.00,Acu-Link.com,2013-02-07 02:27:00,
2013-02-06 20:42:00,37.8,33.1,29.77,NNW,337,5.8,-999.0,83,-99.99,,,0.00,Acu-Link.com,2013-02-07 02:42:00,
2013-02-06 20:57:00,37.9,33.2,29.77,NW,315,9.4,-999.0,83,-99.99,,,0.00,Acu-Link.com,2013-02-07 02:57:00,
2013-02-06 21:13:00,37.6,32.9,29.77,WNW,292,5.8,-999.0,83,-99.99,,,0.00,Acu-Link.com,2013-02-07 03:13:00,
2013-02-06 21:28:00,37.4,32.7,29.78,NW,315,3.2,-999.0,83,-99.99,,,0.00,Acu-Link.com,2013-02-07 03:28:00,
2013-02-06 21:43:00,36.9,32.5,29.79,NNW,337,2.2,-999.0,84,-99.99,,,0.00,Acu-Link.com,2013-02-07 03:43:00,
2013-02-06 21:58:00,36.5,32.4,29.80,NNW,337,3.7,-999.0,85,-99.99,,,0.00,Acu-Link.com,2013-02-07 03:58:00,
2013-02-06 22:14:00,36.3,32.5,29.80,NW,315,3.2,-999.0,86,-99.99,,,0.00,Acu-Link.com,2013-02-07 04:14:00,
2013-02-06 22:29:00,36.0,32.2,29.81,NNW,337,4.7,-999.0,86,-99.99,,,0.00,Acu-Link.com,2013-02-07 04:29:00,
2013-02-06 22:44:00,35.8,32.3,29.81,WNW,292,7.3,-999.0,87,-99.99,,,0.00,Acu-Link.com,2013-02-07 04:44:00,
2013-02-06 22:59:00,35.4,32.2,29.82,NNW,337,6.3,-999.0,88,-99.99,,,0.00,Acu-Link.com,2013-02-07 04:59:00,
2013-02-06 23:15:00,35.2,32.0,29.81,NW,315,6.3,-999.0,88,-99.99,,,0.00,Acu-Link.com,2013-02-07 05:15:00,
2013-02-06 23:30:00,34.9,31.1,29.80,NW,315,8.9,-999.0,86,-99.99,,,0.00,Acu-Link.com,2013-02-07 05:30:00,
2013-02-06 23:45:00,34.3,30.6,29.82,NNW,337,5.3,-999.0,86,-99.99,,,0.00,Acu-Link.com,2013-02-07 05:45:00,